Regional Weather Roundup
Issued by NWS

Home | Current Version | Previous Version | Text Only | Print | Product List | Glossary Off
Versions: 1 2 3 4 5 6 7 8 9 10 11 12 13 14 15 16 17 18 19 20 21 22 23 24 25 26 27 28 29 30 31 32 33 34 35 36 37 38 39 40 41 42 43 44 45 46 47 48 49 50

000
ASUS43 KFSD 201802
RWRSD

WEATHER ROUNDUP FOR SOUTH DAKOTA
NATIONAL WEATHER SERVICE SIOUX FALLS SD
100 PM CDT WED AUG 20 2014

NOTE: "FAIR" INDICATES FEW OR NO CLOUDS BELOW 12,000 FEET WITH NO
SIGNIFICANT WEATHER AND/OR OBSTRUCTIONS TO VISIBILITY.


SDZ001>005-009-010-012>017-201900-
NORTHWEST AND NORTH CENTRAL SOUTH DAKOTA

CITY           SKY/WX    TMP DP  RH WIND       PRES   REMARKS
BUFFALO          N/A     78  63  59 SW7       29.66R
FAITH            N/A     78  65  63 SE20G26   29.70F
MOBRIDGE       PTSUNNY   79  67  66 S17       29.70R
$$

SDZ012>016-024>037-041>051-057-063-072>074-201900-
SOUTHWEST AND SOUTH CENTRAL SOUTH DAKOTA

CITY           SKY/WX    TMP DP  RH WIND       PRES   REMARKS
RAPID CTY ARPT MOSUNNY   83  59  44 SE7       29.75S
PIERRE         CLOUDY    79  68  69 SE9       29.69F
CUSTER         MOSUNNY   76  48  37 W10       29.90S
ELLSWORTH AFB  PTSUNNY   84  58  40 S9        29.75S
PHILIP         CLOUDY    82  60  47 S5        29.70R
PINE RIDGE     MOSUNNY   84  57  39 VRB3      29.78F
WINNER         LGT RAIN  81  69  67 SE13      29.72F
$$

SDZ004>011-016>023-039-040-201900-
NORTHEAST SOUTH DAKOTA

CITY           SKY/WX    TMP DP  RH WIND       PRES   REMARKS
ABERDEEN       PTSUNNY   83  65  54 SE15      29.74F
WATERTOWN      PTSUNNY   81  65  58 SE14      29.81S
SISSETON         N/A     79  66  64 S15       29.78S
$$

SDZ017-020-022-023-036>040-048>070-201900-
SOUTHEAST SOUTH DAKOTA

CITY           SKY/WX    TMP DP  RH WIND       PRES   REMARKS
SIOUX FALLS    PTSUNNY   79  68  69 SE13      29.79F
HURON          PTSUNNY   84  65  52 SE17G23   29.73F
CHAMBERLAIN    CLOUDY    79  70  73 SE12      29.73R
MITCHELL       MOSUNNY   85  70  60 SE10      29.73F
YANKTON        MOSUNNY   77  70  78 S20       29.76S
$$

ABBREVIATIONS USED IN REMARKS
   TC - TEMPERATURE IN CELSIUS
  WCI - WIND CHILL INDEX
   HX - HEAT INDEX
  VSB - VISIBILITY




USA.gov is the U.S. government's official web portal to all federal, state and local government web resources and services.